TimeMST,TemperatureF,Dew PointF,Humidity,Sea Level PressureIn,VisibilityMPH,Wind Direction,Wind SpeedMPH,Gust SpeedMPH,PrecipitationIn,Events,Conditions,WindDirDegrees,DateUTC
12:51 AM,46.9,41.0,80,30.14,10.0,East,4.6,-,N/A,,Partly Cloudy,90,2012-12-17 07:51:00
1:51 AM,46.9,39.9,77,30.15,10.0,ESE,3.5,-,N/A,,Partly Cloudy,110,2012-12-17 08:51:00
2:51 AM,46.0,39.9,79,30.14,10.0,ESE,4.6,-,N/A,,Partly Cloudy,110,2012-12-17 09:51:00
3:51 AM,46.0,39.9,79,30.14,10.0,ESE,4.6,-,N/A,,Partly Cloudy,120,2012-12-17 10:51:00
4:51 AM,45.0,39.9,82,30.14,10.0,ESE,4.6,-,N/A,,Partly Cloudy,110,2012-12-17 11:51:00
5:51 AM,45.0,39.0,80,30.14,10.0,ESE,4.6,-,N/A,,Scattered Clouds,110,2012-12-17 12:51:00
6:51 AM,45.0,39.0,80,30.16,10.0,East,4.6,-,N/A,,Partly Cloudy,100,2012-12-17 13:51:00
7:51 AM,46.0,37.9,73,30.17,10.0,East,5.8,-,N/A,,Partly Cloudy,100,2012-12-17 14:51:00
8:51 AM,48.0,39.0,71,30.17,10.0,SE,9.2,-,N/A,,Partly Cloudy,130,2012-12-17 15:51:00
9:51 AM,51.1,39.0,63,30.17,10.0,East,6.9,-,N/A,,Partly Cloudy,100,2012-12-17 16:51:00
10:51 AM,55.0,39.0,55,30.17,10.0,SE,5.8,-,N/A,,Partly Cloudy,130,2012-12-17 17:51:00
11:51 AM,57.0,37.9,49,30.15,10.0,Calm,Calm,-,N/A,,Partly Cloudy,0,2012-12-17 18:51:00
12:51 PM,59.0,37.9,46,30.10,10.0,Calm,Calm,-,N/A,,Partly Cloudy,0,2012-12-17 19:51:00
1:51 PM,60.1,36.0,41,30.07,10.0,Calm,Calm,-,N/A,,Scattered Clouds,0,2012-12-17 20:51:00
2:51 PM,61.0,36.0,39,30.06,10.0,Calm,Calm,-,N/A,,Scattered Clouds,0,2012-12-17 21:51:00
5:51 PM,60.1,35.1,39,30.01,10.0,Calm,Calm,-,N/A,,Clear,0,2012-12-18 00:51:00
6:51 PM,57.9,37.0,46,30.01,10.0,Calm,Calm,-,N/A,,Clear,0,2012-12-18 01:51:00
7:51 PM,55.9,39.9,55,30.01,10.0,Calm,Calm,-,N/A,,Clear,0,2012-12-18 02:51:00
8:51 PM,55.0,39.0,55,30.01,10.0,North,3.5,-,N/A,,Clear,360,2012-12-18 03:51:00
9:51 PM,53.1,41.0,64,30.01,10.0,Calm,Calm,-,N/A,,Clear,0,2012-12-18 04:51:00
10:51 PM,50.0,42.1,74,30.00,10.0,Calm,Calm,-,N/A,,Clear,0,2012-12-18 05:51:00
11:51 PM,48.9,41.0,74,29.98,10.0,Calm,Calm,-,N/A,,Clear,0,2012-12-18 06:51:00